This is the latest recevied weather packets stored in our database for station/object N3EDS. If no packets are shown the sender has not sent any weather packets the latest 10 day(s).
| Time | Temp. | Humidity | Pressure | Rain* | Wind** | Luminosity | Snow |
|---|---|---|---|---|---|---|---|
| 1777655243 | 12.22° C | 46% | 1012.2 hPa | 0 mm | - | 239 W/m² | - |
| 1777654940 | 12.22° C | 45% | 1011.7 hPa | 0 mm | - | 254 W/m² | - |
| 1777654637 | 12.78° C | 44% | 1012 hPa | 0 mm | - | 272 W/m² | - |
| 1777654334 | 13.33° C | 44% | 1012.2 hPa | 0 mm | - | 816 W/m² | - |
| 1777654032 | 13.33° C | 44% | 1012.2 hPa | 0 mm | - | 473 W/m² | - |
| 1777653729 | 12.78° C | 48% | 1011.8 hPa | 0 mm | - | 492 W/m² | - |
| 1777653425 | 12.22° C | 48% | 1012 hPa | 0 mm | - | 532 W/m² | - |
| 1777653123 | 12.22° C | 51% | 1012.3 hPa | 0 mm | - | 418 W/m² | - |
| 1777652818 | 12.22° C | 52% | 1012 hPa | 0 mm | - | 425 W/m² | - |
| 1777652515 | 12.22° C | 52% | 1012.5 hPa | 0 mm | - | 283 W/m² | - |
| 1777652212 | 12.22° C | 53% | 1012.5 hPa | 0 mm | - | 915 W/m² | - |
| 1777651909 | 11.11° C | 55% | 1012.5 hPa | 0 mm | - | 415 W/m² | - |
| 1777651606 | 11.67° C | 55% | 1012.8 hPa | 0 mm | - | 396 W/m² | - |
| 1777651303 | 12.78° C | 53% | 1012.8 hPa | 0 mm | - | 414 W/m² | - |
| 1777651000 | 11.67° C | 54% | 1012.7 hPa | 0 mm | - | 769 W/m² | - |
| 1777650697 | 11.11° C | 56% | 1012.7 hPa | 0 mm | - | 593 W/m² | - |
| 1777650394 | 11.11° C | 56% | 1013 hPa | 0 mm | - | 326 W/m² | - |
| 1777650091 | 11.11° C | 57% | 1013.2 hPa | 0 mm | - | 295 W/m² | - |
| 1777649788 | 11.11° C | 58% | 1013 hPa | 0 mm | - | 307 W/m² | - |
| 1777649485 | 10.56° C | 55% | 1013 hPa | 0 mm | - | 312 W/m² | - |
| 1777649182 | 10.56° C | 57% | 1013 hPa | 0 mm | - | 296 W/m² | - |
| 1777648879 | 10.56° C | 59% | 1013.3 hPa | 0 mm | - | 314 W/m² | - |
| 1777648272 | 11.11° C | 60% | 1013.2 hPa | 0 mm | - | 188 W/m² | - |
| 1777647969 | 11.11° C | 61% | 1013.3 hPa | 0 mm | - | 149 W/m² | - |
| 1777647665 | 10.56° C | 66% | 1013.3 hPa | 0 mm | - | 239 W/m² | - |
* Rain latest hour (hover to see other rain measurements)
** Current wind speed in m/s (hover to see current wind gust speed)